Time,TemperatureF,DewpointF,PressureIn,WindDirection,WindDirectionDegrees,WindSpeedMPH,WindSpeedGustMPH,Humidity,HourlyPrecipIn,Conditions,Clouds,dailyrainin,SoftwareType,DateUTC
2013-05-06 00:01:00,60.1,49.1,30.07,East,87,1.1,1.1,67,0.00,CLR,,0.00,WeatherDisplay:10.37,2013-05-06 05:01:00,
2013-05-06 00:06:00,60.3,48.9,30.07,East,87,1.1,1.1,66,0.00,CLR,,0.00,WeatherDisplay:10.37,2013-05-06 05:06:00,
2013-05-06 00:11:00,60.1,49.1,30.07,East,87,0.0,0.0,67,0.00,CLR,,0.00,WeatherDisplay:10.37,2013-05-06 05:11:00,
2013-05-06 00:16:00,59.9,48.5,30.07,ENE,70,2.3,2.3,66,0.00,CLR,,0.00,WeatherDisplay:10.37,2013-05-06 05:16:00,
2013-05-06 00:21:00,60.4,48.2,30.07,ENE,67,3.5,3.5,64,0.00,CLR,,0.00,WeatherDisplay:10.37,2013-05-06 05:21:00,
2013-05-06 00:26:00,60.7,48.4,30.07,NE,48,3.5,3.5,64,0.00,CLR,,0.00,WeatherDisplay:10.37,2013-05-06 05:26:00,
2013-05-06 00:31:00,60.6,48.4,30.07,NE,54,3.5,3.5,64,0.00,CLR,,0.00,WeatherDisplay:10.37,2013-05-06 05:31:00,
2013-05-06 00:36:00,60.5,48.7,30.07,ENE,72,3.5,3.5,65,0.00,CLR,,0.00,WeatherDisplay:10.37,2013-05-06 05:36:00,
2013-05-06 00:41:00,60.3,48.9,30.07,ENE,60,2.3,0.0,66,0.00,CLR,,0.00,WeatherDisplay:10.37,2013-05-06 05:41:00,
2013-05-06 00:46:00,59.9,49.3,30.08,NE,49,2.3,2.3,68,0.00,CLR,,0.00,WeatherDisplay:10.37,2013-05-06 05:46:00,
2013-05-06 00:51:00,60.0,49.0,30.08,NE,44,3.5,3.5,67,0.00,CLR,,0.00,WeatherDisplay:10.37,2013-05-06 05:51:00,
2013-05-06 00:56:00,60.0,48.6,30.07,NE,45,3.5,3.5,66,0.00,CLR,,0.00,WeatherDisplay:10.37,2013-05-06 05:56:00,
2013-05-06 01:01:00,59.8,48.8,30.07,NE,41,0.0,0.0,67,0.00,CLR,,0.00,WeatherDisplay:10.37,2013-05-06 06:01:00,
2013-05-06 01:06:00,59.6,48.6,30.07,NNE,23,1.1,0.0,67,0.00,CLR,,0.00,WeatherDisplay:10.37,2013-05-06 06:06:00,
2013-05-06 01:11:00,59.4,48.8,30.07,North,360,0.0,0.0,68,0.00,CLR,,0.00,WeatherDisplay:10.37,2013-05-06 06:11:00,
2013-05-06 01:16:00,58.8,48.3,30.08,North,360,0.0,0.0,68,0.00,CLR,,0.00,WeatherDisplay:10.37,2013-05-06 06:16:00,
2013-05-06 01:21:00,58.4,48.7,30.07,NE,36,2.3,2.3,70,0.00,CLR,,0.00,WeatherDisplay:10.37,2013-05-06 06:21:00,
2013-05-06 01:26:00,58.9,48.7,30.07,ENE,57,0.0,0.0,69,0.00,CLR,,0.00,WeatherDisplay:10.37,2013-05-06 06:26:00,
2013-05-06 01:31:00,58.8,48.3,30.08,ENE,72,0.0,0.0,68,0.00,CLR,,0.00,WeatherDisplay:10.37,2013-05-06 06:31:00,
2013-05-06 01:36:00,59.0,48.4,30.07,NE,41,1.0,1.2,68,0.00,CLR,,0.00,WeatherDisplay:10.37,2013-05-06 06:36:00,
2013-05-06 01:41:00,59.1,48.1,30.07,NE,41,0.0,0.0,67,0.00,CLR,,0.00,WeatherDisplay:10.37,2013-05-06 06:41:00,
2013-05-06 01:46:00,58.6,48.1,30.07,NE,41,0.0,0.0,68,0.00,CLR,,0.00,WeatherDisplay:10.37,2013-05-06 06:46:00,
2013-05-06 01:51:00,58.0,47.9,30.07,NE,40,1.1,1.1,69,0.00,CLR,,0.00,WeatherDisplay:10.37,2013-05-06 06:51:00,
2013-05-06 01:56:00,58.3,48.2,30.07,NNE,27,0.0,0.0,69,0.00,CLR,,0.00,WeatherDisplay:10.37,2013-05-06 06:56:00,
2013-05-06 02:01:00,57.9,47.8,30.07,NNE,27,0.0,0.0,69,0.00,CLR,,0.00,WeatherDisplay:10.37,2013-05-06 07:01:00,
2013-05-06 02:06:00,58.0,47.9,30.07,ENE,57,0.0,0.0,69,0.00,CLR,,0.00,WeatherDisplay:10.37,2013-05-06 07:06:00,
2013-05-06 02:11:00,58.2,48.1,30.07,ESE,122,0.0,0.0,69,0.00,CLR,,0.00,WeatherDisplay:10.37,2013-05-06 07:11:00,
2013-05-06 02:16:00,57.5,47.4,30.07,ESE,123,0.0,0.0,69,0.00,CLR,,0.00,WeatherDisplay:10.37,2013-05-06 07:16:00,
2013-05-06 02:21:00,56.8,47.5,30.07,ESE,122,0.0,0.0,71,0.00,CLR,,0.00,WeatherDisplay:10.37,2013-05-06 07:21:00,
2013-05-06 02:26:00,56.5,47.6,30.07,ESE,122,0.0,0.0,72,0.00,CLR,,0.00,WeatherDisplay:10.37,2013-05-06 07:26:00,
2013-05-06 02:31:00,56.5,47.9,30.06,North,353,1.0,1.4,73,0.00,CLR,,0.00,WeatherDisplay:10.37,2013-05-06 07:31:00,
2013-05-06 02:36:00,56.9,48.0,30.06,North,11,3.5,3.5,72,0.00,CLR,,0.00,WeatherDisplay:10.37,2013-05-06 07:36:00,
2013-05-06 02:41:00,57.0,48.1,30.06,NNW,345,0.0,0.0,72,0.00,CLR,,0.00,WeatherDisplay:10.37,2013-05-06 07:41:00,
2013-05-06 02:46:00,56.7,48.1,30.06,NW,323,0.0,0.0,73,0.00,CLR,,0.00,WeatherDisplay:10.37,2013-05-06 07:46:00,
2013-05-06 02:51:00,56.1,47.6,30.06,NW,323,0.0,0.0,73,0.00,CLR,,0.00,WeatherDisplay:10.37,2013-05-06 07:51:00,
2013-05-06 02:56:00,55.1,47.7,30.06,NW,323,0.0,0.0,76,0.00,CLR,,0.00,WeatherDisplay:10.37,2013-05-06 07:56:00,
2013-05-06 03:01:00,55.0,47.9,30.06,NW,325,0.0,0.0,77,0.00,CLR,,0.00,WeatherDisplay:10.37,2013-05-06 08:01:00,
2013-05-06 03:06:00,54.7,47.6,30.06,NW,325,0.0,0.0,77,0.00,CLR,,0.00,WeatherDisplay:10.37,2013-05-06 08:06:00,
2013-05-06 03:11:00,54.7,48.0,30.06,NNW,345,0.0,0.0,78,0.00,CLR,,0.00,WeatherDisplay:10.37,2013-05-06 08:11:00,
2013-05-06 03:16:00,54.1,47.4,30.06,NNW,345,0.0,0.0,78,0.00,CLR,,0.00,WeatherDisplay:10.37,2013-05-06 08:16:00,
2013-05-06 03:21:00,53.4,47.4,30.06,NNW,345,0.0,0.0,80,0.00,CLR,,0.00,WeatherDisplay:10.37,2013-05-06 08:21:00,
2013-05-06 03:26:00,53.5,47.8,30.05,NNE,22,1.1,0.0,81,0.00,CLR,,0.00,WeatherDisplay:10.37,2013-05-06 08:26:00,
2013-05-06 03:31:00,54.0,48.0,30.05,NNE,17,2.3,2.3,80,0.00,CLR,,0.00,WeatherDisplay:10.37,2013-05-06 08:31:00,
2013-05-06 03:36:00,54.7,48.0,30.05,North,9,1.1,0.0,78,0.00,CLR,,0.00,WeatherDisplay:10.37,2013-05-06 08:36:00,
2013-05-06 03:41:00,53.8,46.8,30.06,South,172,0.0,0.0,77,0.00,CLR,,0.00,WeatherDisplay:10.37,2013-05-06 08:41:00,
2013-05-06 03:46:00,52.2,46.9,30.06,SSE,160,0.0,0.0,82,0.00,CLR,,0.00,WeatherDisplay:10.37,2013-05-06 08:46:00,
2013-05-06 03:51:00,51.4,46.7,30.06,SSE,159,0.0,0.0,84,0.00,CLR,,0.00,WeatherDisplay:10.37,2013-05-06 08:51:00,
2013-05-06 03:56:00,50.8,46.5,30.06,SSE,160,0.0,0.0,85,0.00,CLR,,0.00,WeatherDisplay:10.37,2013-05-06 08:56:00,
2013-05-06 04:01:00,50.8,47.4,30.06,SSE,160,0.0,0.0,88,0.00,CLR,,0.00,WeatherDisplay:10.37,2013-05-06 09:01:00,
2013-05-06 04:06:00,50.9,47.8,30.06,SSE,160,0.0,0.0,89,0.00,CLR,,0.00,WeatherDisplay:10.37,2013-05-06 09:06:00,
2013-05-06 04:11:00,51.0,47.9,30.06,SSE,167,0.0,0.0,89,0.00,CLR,,0.00,WeatherDisplay:10.37,2013-05-06 09:11:00,
2013-05-06 04:16:00,50.9,47.8,30.05,SSE,167,0.0,0.0,89,0.00,CLR,,0.00,WeatherDisplay:10.37,2013-05-06 09:16:00,
2013-05-06 04:21:00,51.5,48.1,30.05,South,186,0.0,0.0,88,0.00,CLR,,0.00,WeatherDisplay:10.37,2013-05-06 09:21:00,
2013-05-06 04:26:00,51.7,47.6,30.05,South,186,0.0,0.0,86,0.00,CLR,,0.00,WeatherDisplay:10.37,2013-05-06 09:26:00,
2013-05-06 04:31:00,52.0,47.9,30.05,North,358,0.0,0.0,86,0.00,CLR,,0.00,WeatherDisplay:10.37,2013-05-06 09:31:00,
2013-05-06 04:36:00,52.8,48.1,30.05,North,1,3.5,3.5,84,0.00,CLR,,0.00,WeatherDisplay:10.37,2013-05-06 09:36:00,
2013-05-06 04:41:00,53.0,47.7,30.06,SW,214,0.0,0.4,82,0.00,CLR,,0.00,WeatherDisplay:10.37,2013-05-06 09:41:00,
2013-05-06 04:46:00,51.7,46.4,30.06,SW,231,2.3,2.3,82,0.00,CLR,,0.00,WeatherDisplay:10.37,2013-05-06 09:46:00,
2013-05-06 04:51:00,50.8,46.8,30.06,WSW,246,0.0,0.0,86,0.00,CLR,,0.00,WeatherDisplay:10.37,2013-05-06 09:51:00,
2013-05-06 04:56:00,51.0,47.3,30.06,WSW,246,0.0,0.0,87,0.00,CLR,,0.00,WeatherDisplay:10.37,2013-05-06 09:56:00,
2013-05-06 05:01:00,50.9,46.9,30.06,WSW,246,0.0,0.0,86,0.00,CLR,,0.00,WeatherDisplay:10.37,2013-05-06 10:01:00,
2013-05-06 05:06:00,51.3,47.6,30.06,WSW,246,0.0,0.0,87,0.00,CLR,,0.00,WeatherDisplay:10.37,2013-05-06 10:06:00,
2013-05-06 05:11:00,51.6,47.5,30.06,WSW,245,0.0,0.0,86,0.00,CLR,,0.00,WeatherDisplay:10.37,2013-05-06 10:11:00,
2013-05-06 05:16:00,51.3,47.3,30.06,WSW,249,0.0,0.0,86,0.00,CLR,,0.00,WeatherDisplay:10.37,2013-05-06 10:16:00,
2013-05-06 05:21:00,51.1,47.1,30.06,WSW,249,0.0,0.0,86,0.00,CLR,,0.00,WeatherDisplay:10.37,2013-05-06 10:21:00,
2013-05-06 05:26:00,51.0,47.0,30.06,WSW,249,0.0,0.0,86,0.00,CLR,,0.00,WeatherDisplay:10.37,2013-05-06 10:26:00,
2013-05-06 05:31:00,51.0,46.6,30.06,WSW,249,0.0,0.0,85,0.00,CLR,,0.00,WeatherDisplay:10.37,2013-05-06 10:31:00,
2013-05-06 05:36:00,50.4,46.7,30.06,WSW,249,0.0,0.0,87,0.00,CLR,,0.00,WeatherDisplay:10.37,2013-05-06 10:36:00,
2013-05-06 05:41:00,50.3,46.6,30.06,WSW,249,0.0,0.0,87,0.00,CLR,,0.00,WeatherDisplay:10.37,2013-05-06 10:41:00,
2013-05-06 05:46:00,50.5,47.1,30.06,NW,321,2.3,2.3,88,0.00,CLR,,0.00,WeatherDisplay:10.37,2013-05-06 10:46:00,
2013-05-06 05:51:00,51.2,47.2,30.07,NNW,333,2.3,2.3,86,0.00,CLR,,0.00,WeatherDisplay:10.37,2013-05-06 10:51:00,
2013-05-06 05:56:00,51.9,47.2,30.07,North,360,3.5,3.5,84,0.00,CLR,,0.00,WeatherDisplay:10.37,2013-05-06 10:56:00,
2013-05-06 06:01:00,52.1,47.1,30.07,NNE,12,3.5,3.5,83,0.00,CLR,,0.00,WeatherDisplay:10.37,2013-05-06 11:01:00,
2013-05-06 06:06:00,52.3,47.0,30.07,SSE,160,0.0,0.0,82,0.00,CLR,,0.00,WeatherDisplay:10.37,2013-05-06 11:06:00,
2013-05-06 06:11:00,51.5,46.2,30.07,SSE,160,0.0,0.0,82,0.00,CLR,,0.00,WeatherDisplay:10.37,2013-05-06 11:11:00,
2013-05-06 06:16:00,50.9,46.2,30.08,SSW,193,0.0,0.0,84,0.00,CLR,,0.00,WeatherDisplay:10.37,2013-05-06 11:16:00,
2013-05-06 06:21:00,51.0,46.6,30.07,SSW,193,0.0,0.0,85,0.00,CLR,,0.00,WeatherDisplay:10.37,2013-05-06 11:21:00,
2013-05-06 06:26:00,50.8,46.5,30.07,SSW,193,0.0,0.0,85,0.00,CLR,,0.00,WeatherDisplay:10.37,2013-05-06 11:26:00,
2013-05-06 06:31:00,50.4,46.4,30.07,NNE,13,1.1,1.1,86,0.00,CLR,,0.00,WeatherDisplay:10.37,2013-05-06 11:31:00,
2013-05-06 06:36:00,51.0,47.0,30.08,North,4,3.5,3.5,86,0.00,CLR,,0.00,WeatherDisplay:10.37,2013-05-06 11:36:00,
2013-05-06 06:41:00,51.4,47.0,30.08,North,352,1.1,1.1,85,0.00,CLR,,0.00,WeatherDisplay:10.37,2013-05-06 11:41:00,
2013-05-06 06:46:00,51.5,47.1,30.08,North,4,2.3,2.3,85,0.00,CLR,,0.00,WeatherDisplay:10.37,2013-05-06 11:46:00,
2013-05-06 06:51:00,51.7,47.3,30.08,NNW,336,0.0,0.0,85,0.00,CLR,,0.00,WeatherDisplay:10.37,2013-05-06 11:51:00,
2013-05-06 06:56:00,51.3,46.6,30.09,NNW,336,0.0,0.0,84,0.00,CLR,,0.00,WeatherDisplay:10.37,2013-05-06 11:56:00,
2013-05-06 07:01:00,51.3,46.9,30.09,NNW,340,0.0,0.0,85,0.00,CLR,,0.00,WeatherDisplay:10.37,2013-05-06 12:01:00,
2013-05-06 07:06:00,50.9,46.2,30.09,NNW,342,1.1,0.0,84,0.00,CLR,,0.00,WeatherDisplay:10.37,2013-05-06 12:06:00,
2013-05-06 07:11:00,50.9,46.9,30.09,NNW,340,0.0,0.0,86,0.00,CLR,,0.00,WeatherDisplay:10.37,2013-05-06 12:11:00,
2013-05-06 07:16:00,51.0,46.6,30.09,NNW,342,0.0,0.0,85,0.00,CLR,,0.00,WeatherDisplay:10.37,2013-05-06 12:16:00,
2013-05-06 07:21:00,51.0,46.6,30.09,NNW,342,0.0,0.0,85,0.00,CLR,,0.00,WeatherDisplay:10.37,2013-05-06 12:21:00,
2013-05-06 07:26:00,51.5,47.5,30.09,NNW,340,0.0,0.0,86,0.00,CLR,,0.00,WeatherDisplay:10.37,2013-05-06 12:26:00,
2013-05-06 07:31:00,51.4,46.7,30.09,NNW,330,0.0,0.0,84,0.00,CLR,,0.00,WeatherDisplay:10.37,2013-05-06 12:31:00,
2013-05-06 07:36:00,51.7,47.3,30.10,West,273,0.0,0.0,85,0.00,CLR,,0.00,WeatherDisplay:10.37,2013-05-06 12:36:00,
2013-05-06 07:41:00,52.5,48.1,30.10,West,273,0.0,0.0,85,0.00,CLR,,0.00,WeatherDisplay:10.37,2013-05-06 12:41:00,
2013-05-06 07:46:00,53.7,49.0,30.10,West,273,0.0,0.0,84,0.00,CLR,,0.00,WeatherDisplay:10.37,2013-05-06 12:46:00,
2013-05-06 07:51:00,54.4,49.3,30.10,West,273,0.0,0.0,83,0.00,CLR,,0.00,WeatherDisplay:10.37,2013-05-06 12:51:00,
2013-05-06 07:56:00,55.4,50.0,30.10,West,272,0.0,0.0,82,0.00,CLR,,0.00,WeatherDisplay:10.37,2013-05-06 12:56:00,
2013-05-06 08:01:00,56.2,50.1,30.10,NNW,343,1.1,1.1,80,0.00,CLR,,0.00,WeatherDisplay:10.37,2013-05-06 13:01:00,
2013-05-06 08:06:00,56.6,49.8,30.10,NNW,329,0.0,0.1,78,0.00,CLR,,0.00,WeatherDisplay:10.37,2013-05-06 13:06:00,
2013-05-06 08:11:00,57.0,49.9,30.11,NNE,25,2.3,2.3,77,0.00,CLR,,0.00,WeatherDisplay:10.37,2013-05-06 13:11:00,
2013-05-06 08:16:00,57.4,49.9,30.10,NNW,339,0.0,0.0,76,0.00,CLR,,0.00,WeatherDisplay:10.37,2013-05-06 13:16:00,
2013-05-06 08:21:00,57.8,49.9,30.11,NNW,333,2.3,2.3,75,0.00,CLR,,0.00,WeatherDisplay:10.37,2013-05-06 13:21:00,
2013-05-06 08:26:00,58.5,50.2,30.11,NNW,342,1.1,1.1,74,0.00,CLR,,0.00,WeatherDisplay:10.37,2013-05-06 13:26:00,
2013-05-06 08:31:00,59.3,50.3,30.10,NE,56,1.1,1.1,72,0.00,CLR,,0.00,WeatherDisplay:10.37,2013-05-06 13:31:00,
2013-05-06 08:36:00,60.0,50.2,30.10,ENE,76,2.3,2.3,70,0.00,CLR,,0.00,WeatherDisplay:10.37,2013-05-06 13:36:00,
2013-05-06 08:41:00,60.6,50.0,30.10,East,95,0.0,0.0,68,0.00,CLR,,0.00,WeatherDisplay:10.37,2013-05-06 13:41:00,
2013-05-06 08:46:00,60.4,49.8,30.11,ENE,65,1.1,1.5,68,0.00,CLR,,0.00,WeatherDisplay:10.37,2013-05-06 13:46:00,
2013-05-06 08:51:00,60.1,49.5,30.11,East,79,0.0,0.0,68,0.00,CLR,,0.00,WeatherDisplay:10.37,2013-05-06 13:51:00,
2013-05-06 08:56:00,60.2,49.6,30.11,ENE,70,0.0,0.9,68,0.00,CLR,,0.00,WeatherDisplay:10.37,2013-05-06 13:56:00,
2013-05-06 09:01:00,60.3,50.1,30.11,ENE,59,1.1,1.3,69,0.00,CLR,,0.00,WeatherDisplay:10.37,2013-05-06 14:01:00,
2013-05-06 09:06:00,60.9,49.5,30.12,ESE,111,0.0,0.0,66,0.00,CLR,,0.00,WeatherDisplay:10.37,2013-05-06 14:06:00,
2013-05-06 09:11:00,61.4,49.5,30.12,ENE,75,0.0,0.1,65,0.00,CLR,,0.00,WeatherDisplay:10.37,2013-05-06 14:11:00,
2013-05-06 09:16:00,61.7,49.0,30.13,ESE,121,0.0,0.0,63,0.00,CLR,,0.00,WeatherDisplay:10.37,2013-05-06 14:16:00,
2013-05-06 09:21:00,63.1,49.4,30.13,ESE,121,0.0,0.0,61,0.00,CLR,,0.00,WeatherDisplay:10.37,2013-05-06 14:21:00,
2013-05-06 09:26:00,64.2,49.6,30.13,ESE,118,0.0,0.0,59,0.00,CLR,,0.00,WeatherDisplay:10.37,2013-05-06 14:26:00,
2013-05-06 09:31:00,65.0,49.4,30.13,SSW,200,2.3,2.3,57,0.00,CLR,,0.00,WeatherDisplay:10.37,2013-05-06 14:31:00,
2013-05-06 09:36:00,65.6,49.5,30.14,SE,142,0.0,0.0,56,0.00,CLR,,0.00,WeatherDisplay:10.37,2013-05-06 14:36:00,
2013-05-06 09:41:00,66.4,49.2,30.14,SSW,201,3.5,3.5,54,0.00,CLR,,0.00,WeatherDisplay:10.37,2013-05-06 14:41:00,
2013-05-06 09:46:00,66.2,49.6,30.14,SW,232,0.0,1.0,55,0.00,CLR,,0.00,WeatherDisplay:10.37,2013-05-06 14:46:00,
2013-05-06 09:51:00,67.1,49.9,30.14,SSW,204,0.0,2.5,54,0.00,CLR,,0.00,WeatherDisplay:10.37,2013-05-06 14:51:00,
2013-05-06 09:56:00,67.3,49.6,30.14,South,179,3.5,3.5,53,0.00,CLR,,0.00,WeatherDisplay:10.37,2013-05-06 14:56:00,
2013-05-06 10:01:00,67.5,49.8,30.14,South,169,5.0,5.0,53,0.00,CLR,,0.00,WeatherDisplay:10.37,2013-05-06 15:01:00,
2013-05-06 10:06:00,68.0,50.2,30.14,South,183,4.6,4.6,53,0.00,CLR,,0.00,WeatherDisplay:10.37,2013-05-06 15:06:00,
2013-05-06 10:11:00,68.8,51.0,30.14,South,174,4.0,4.0,53,0.00,CLR,,0.00,WeatherDisplay:10.37,2013-05-06 15:11:00,
2013-05-06 10:16:00,68.6,49.2,30.15,WSW,246,3.5,3.5,50,0.00,CLR,,0.00,WeatherDisplay:10.37,2013-05-06 15:16:00,
2013-05-06 10:21:00,68.1,49.3,30.15,WSW,246,3.5,3.5,51,0.00,CLR,,0.00,WeatherDisplay:10.37,2013-05-06 15:21:00,
2013-05-06 10:26:00,68.0,49.7,30.15,SSW,200,3.5,3.5,52,0.00,CLR,,0.00,WeatherDisplay:10.37,2013-05-06 15:26:00,
2013-05-06 10:31:00,68.2,48.3,30.15,SSW,205,4.6,4.6,49,0.00,CLR,,0.00,WeatherDisplay:10.37,2013-05-06 15:31:00,
2013-05-06 10:36:00,68.1,48.8,30.14,SE,136,3.5,3.5,50,0.00,CLR,,0.00,WeatherDisplay:10.37,2013-05-06 15:36:00,
2013-05-06 10:41:00,68.2,48.3,30.14,SSE,150,5.8,5.8,49,0.00,CLR,,0.00,WeatherDisplay:10.37,2013-05-06 15:41:00,
2013-05-06 10:46:00,68.5,49.1,30.14,SE,146,3.5,3.5,50,0.00,CLR,,0.00,WeatherDisplay:10.37,2013-05-06 15:46:00,
2013-05-06 10:51:00,68.9,48.4,30.14,SE,135,3.5,3.5,48,0.00,CLR,,0.00,WeatherDisplay:10.37,2013-05-06 15:51:00,
2013-05-06 10:56:00,69.5,48.9,30.14,SE,124,1.1,1.1,48,0.00,CLR,,0.00,WeatherDisplay:10.37,2013-05-06 15:56:00,
2013-05-06 11:01:00,70.0,48.8,30.14,ESE,117,2.3,2.3,47,0.00,CLR,,0.00,WeatherDisplay:10.37,2013-05-06 16:01:00,
2013-05-06 11:06:00,71.1,50.4,30.13,SSE,156,2.3,2.3,48,0.00,CLR,,0.00,WeatherDisplay:10.37,2013-05-06 16:06:00,
2013-05-06 11:11:00,72.0,48.9,30.13,South,170,2.3,2.3,44,0.00,CLR,,0.00,WeatherDisplay:10.37,2013-05-06 16:11:00,
2013-05-06 11:16:00,72.4,49.9,30.13,ESE,113,6.9,6.9,45,0.00,CLR,,0.00,WeatherDisplay:10.37,2013-05-06 16:16:00,
2013-05-06 11:21:00,71.6,49.1,30.13,ENE,60,3.5,3.7,45,0.00,CLR,,0.00,WeatherDisplay:10.37,2013-05-06 16:21:00,
2013-05-06 11:26:00,71.4,48.9,30.12,WSW,240,5.8,5.8,45,0.00,CLR,,0.00,WeatherDisplay:10.37,2013-05-06 16:26:00,
2013-05-06 11:31:00,71.9,50.6,30.12,SSE,150,4.6,4.6,47,0.00,CLR,,0.00,WeatherDisplay:10.37,2013-05-06 16:31:00,
2013-05-06 11:36:00,72.6,51.2,30.12,NNW,335,2.3,2.3,47,0.00,CLR,,0.00,WeatherDisplay:10.37,2013-05-06 16:36:00,
2013-05-06 11:41:00,73.4,51.4,30.12,ESE,117,3.5,3.5,46,0.00,CLR,,0.00,WeatherDisplay:10.37,2013-05-06 16:41:00,
2013-05-06 11:46:00,72.9,50.9,30.11,SE,143,8.1,8.1,46,0.00,CLR,,0.00,WeatherDisplay:10.37,2013-05-06 16:46:00,
2013-05-06 11:51:00,73.4,50.8,30.11,SSW,194,4.6,4.6,45,0.00,CLR,,0.00,WeatherDisplay:10.37,2013-05-06 16:51:00,
2013-05-06 11:56:00,73.3,50.7,30.10,SE,127,5.8,5.8,45,0.00,CLR,,0.00,WeatherDisplay:10.37,2013-05-06 16:56:00,
2013-05-06 12:01:00,73.6,51.5,30.10,SSE,155,8.1,8.1,46,0.00,CLR,,0.00,WeatherDisplay:10.37,2013-05-06 17:01:00,
2013-05-06 12:06:00,73.6,50.9,30.09,SE,137,4.6,4.6,45,0.00,CLR,,0.00,WeatherDisplay:10.37,2013-05-06 17:06:00,
2013-05-06 12:11:00,73.3,51.3,30.09,ENE,72,3.5,4.3,46,0.00,CLR,,0.00,WeatherDisplay:10.37,2013-05-06 17:11:00,
2013-05-06 12:16:00,73.0,51.0,30.08,SE,125,6.0,6.0,46,0.00,CLR,,0.00,WeatherDisplay:10.37,2013-05-06 17:16:00,
2013-05-06 12:21:00,73.1,50.5,30.08,SSE,154,4.6,4.6,45,0.00,CLR,,0.00,WeatherDisplay:10.37,2013-05-06 17:21:00,
2013-05-06 12:26:00,73.4,50.2,30.08,East,82,6.9,6.9,44,0.00,CLR,,0.00,WeatherDisplay:10.37,2013-05-06 17:26:00,
2013-05-06 12:31:00,73.2,51.2,30.07,ESE,115,5.8,5.8,46,0.00,CLR,,0.00,WeatherDisplay:10.37,2013-05-06 17:31:00,
2013-05-06 12:36:00,73.9,51.8,30.07,East,89,10.4,10.4,46,0.00,CLR,,0.00,WeatherDisplay:10.37,2013-05-06 17:36:00,
2013-05-06 12:41:00,73.5,51.4,30.07,East,79,4.6,4.6,46,0.00,CLR,,0.00,WeatherDisplay:10.37,2013-05-06 17:41:00,
2013-05-06 12:46:00,73.2,50.6,30.07,West,274,4.6,4.6,45,0.00,CLR,,0.00,WeatherDisplay:10.37,2013-05-06 17:46:00,
2013-05-06 12:51:00,73.7,51.0,30.07,South,185,5.0,5.0,45,0.00,CLR,,0.00,WeatherDisplay:10.37,2013-05-06 17:51:00,
2013-05-06 12:56:00,74.8,52.0,30.07,East,92,4.6,4.6,45,0.00,CLR,,0.00,WeatherDisplay:10.37,2013-05-06 17:56:00,
2013-05-06 13:01:00,75.4,51.3,30.07,ESE,120,10.4,10.4,43,0.00,CLR,,0.00,WeatherDisplay:10.37,2013-05-06 18:01:00,
2013-05-06 13:06:00,75.6,51.5,30.06,NE,39,3.5,3.5,43,0.00,CLR,,0.00,WeatherDisplay:10.37,2013-05-06 18:06:00,
2013-05-06 13:11:00,75.7,51.6,30.06,East,97,4.6,4.6,43,0.00,CLR,,0.00,WeatherDisplay:10.37,2013-05-06 18:11:00,
2013-05-06 13:16:00,75.4,51.3,30.06,SSE,148,5.8,5.8,43,0.00,CLR,,0.00,WeatherDisplay:10.37,2013-05-06 18:16:00,
2013-05-06 13:21:00,75.3,52.5,30.06,East,101,5.8,5.8,45,0.00,CLR,,0.00,WeatherDisplay:10.37,2013-05-06 18:21:00,
2013-05-06 13:26:00,74.8,52.0,30.05,ENE,70,5.0,5.0,45,0.00,CLR,,0.00,WeatherDisplay:10.37,2013-05-06 18:26:00,
2013-05-06 13:31:00,74.6,51.9,30.05,SSE,154,4.6,4.7,45,0.00,CLR,,0.00,WeatherDisplay:10.37,2013-05-06 18:31:00,
2013-05-06 13:36:00,74.9,51.5,30.05,ENE,72,4.6,4.6,44,0.00,CLR,,0.00,WeatherDisplay:10.37,2013-05-06 18:36:00,
2013-05-06 13:41:00,74.7,51.3,30.05,NE,46,4.0,4.0,44,0.00,CLR,,0.00,WeatherDisplay:10.37,2013-05-06 18:41:00,
2013-05-06 13:46:00,74.6,51.9,30.05,East,79,5.8,6.2,45,0.00,CLR,,0.00,WeatherDisplay:10.37,2013-05-06 18:46:00,
2013-05-06 13:51:00,74.3,52.2,30.04,East,88,5.8,5.8,46,0.00,CLR,,0.00,WeatherDisplay:10.37,2013-05-06 18:51:00,
2013-05-06 13:56:00,74.0,51.3,30.05,ENE,67,6.9,6.9,45,0.00,CLR,,0.00,WeatherDisplay:10.37,2013-05-06 18:56:00,
2013-05-06 14:01:00,73.8,51.1,30.05,East,82,4.6,4.6,45,0.00,CLR,,0.00,WeatherDisplay:10.37,2013-05-06 19:01:00,
2013-05-06 14:06:00,74.0,51.9,30.04,ENE,72,4.0,4.0,46,0.00,CLR,,0.00,WeatherDisplay:10.37,2013-05-06 19:06:00,
2013-05-06 14:11:00,73.9,50.6,30.05,ENE,58,4.6,4.6,44,0.00,CLR,,0.00,WeatherDisplay:10.37,2013-05-06 19:11:00,
2013-05-06 14:16:00,73.7,51.0,30.05,East,85,3.5,4.0,45,0.00,CLR,,0.00,WeatherDisplay:10.37,2013-05-06 19:16:00,
2013-05-06 14:21:00,73.8,51.7,30.04,ENE,58,2.3,2.3,46,0.00,CLR,,0.00,WeatherDisplay:10.37,2013-05-06 19:21:00,
2013-05-06 14:26:00,74.1,52.0,30.04,ESE,115,2.3,0.0,46,0.00,CLR,,0.00,WeatherDisplay:10.37,2013-05-06 19:26:00,
2013-05-06 14:31:00,74.5,51.2,30.05,ENE,75,2.3,2.3,44,0.00,CLR,,0.00,WeatherDisplay:10.37,2013-05-06 19:31:00,
2013-05-06 14:36:00,74.5,51.8,30.05,SE,129,3.5,3.5,45,0.00,CLR,,0.00,WeatherDisplay:10.37,2013-05-06 19:36:00,
2013-05-06 14:41:00,74.7,51.3,30.05,ESE,122,3.5,3.5,44,0.00,CLR,,0.00,WeatherDisplay:10.37,2013-05-06 19:41:00,
2013-05-06 14:46:00,74.8,51.4,30.05,SE,133,3.5,3.5,44,0.00,CLR,,0.00,WeatherDisplay:10.37,2013-05-06 19:46:00,
2013-05-06 14:51:00,75.3,51.3,30.04,SE,129,3.5,3.5,43,0.00,CLR,,0.00,WeatherDisplay:10.37,2013-05-06 19:51:00,
2013-05-06 14:56:00,75.3,51.9,30.04,NE,47,3.5,3.5,44,0.00,CLR,,0.00,WeatherDisplay:10.37,2013-05-06 19:56:00,
2013-05-06 15:01:00,74.9,51.5,30.04,East,94,5.0,5.0,44,0.00,CLR,,0.00,WeatherDisplay:10.37,2013-05-06 20:01:00,
2013-05-06 15:06:00,74.6,51.2,30.04,ENE,77,3.5,3.5,44,0.00,CLR,,0.00,WeatherDisplay:10.37,2013-05-06 20:06:00,
2013-05-06 15:11:00,74.2,50.9,30.04,ENE,70,5.8,5.8,44,0.00,CLR,,0.00,WeatherDisplay:10.37,2013-05-06 20:11:00,
2013-05-06 15:16:00,73.8,51.1,30.03,East,93,4.6,4.6,45,0.00,CLR,,0.00,WeatherDisplay:10.37,2013-05-06 20:16:00,
2013-05-06 15:21:00,73.8,51.7,30.02,East,94,3.5,3.5,46,0.00,CLR,,0.00,WeatherDisplay:10.37,2013-05-06 20:21:00,
2013-05-06 15:26:00,73.9,51.8,30.02,ENE,61,4.6,4.6,46,0.00,CLR,,0.00,WeatherDisplay:10.37,2013-05-06 20:26:00,
2013-05-06 15:31:00,73.9,51.8,30.00,NE,43,6.0,6.0,46,0.00,CLR,,0.00,WeatherDisplay:10.37,2013-05-06 20:31:00,
2013-05-06 15:36:00,73.7,51.6,30.00,East,85,9.2,9.2,46,0.00,CLR,,0.00,WeatherDisplay:10.37,2013-05-06 20:36:00,
2013-05-06 15:41:00,73.5,52.0,30.00,East,90,8.1,8.1,47,0.00,CLR,,0.00,WeatherDisplay:10.37,2013-05-06 20:41:00,
2013-05-06 15:46:00,73.4,51.4,30.01,ESE,117,7.0,7.0,46,0.00,CLR,,0.00,WeatherDisplay:10.37,2013-05-06 20:46:00,
2013-05-06 15:51:00,73.4,51.4,30.00,ENE,70,5.8,5.8,46,0.00,CLR,,0.00,WeatherDisplay:10.37,2013-05-06 20:51:00,
2013-05-06 15:56:00,73.4,51.9,29.99,East,82,6.9,6.9,47,0.00,CLR,,0.00,WeatherDisplay:10.37,2013-05-06 20:56:00,
2013-05-06 16:01:00,73.4,51.4,29.99,East,101,5.8,5.8,46,0.00,CLR,,0.00,WeatherDisplay:10.37,2013-05-06 21:01:00,
2013-05-06 16:06:00,73.3,51.3,29.99,East,82,6.9,6.9,46,0.00,CLR,,0.00,WeatherDisplay:10.37,2013-05-06 21:06:00,
2013-05-06 16:11:00,73.4,51.4,29.98,ENE,77,9.2,9.2,46,0.00,CLR,,0.00,WeatherDisplay:10.37,2013-05-06 21:11:00,
2013-05-06 16:16:00,73.4,51.4,29.98,ESE,115,6.0,6.0,46,0.00,CLR,,0.00,WeatherDisplay:10.37,2013-05-06 21:16:00,
2013-05-06 16:21:00,73.5,51.4,29.98,ESE,105,6.9,6.9,46,0.00,CLR,,0.00,WeatherDisplay:10.37,2013-05-06 21:21:00,
2013-05-06 16:26:00,73.7,51.0,29.99,SE,134,6.9,6.9,45,0.00,CLR,,0.00,WeatherDisplay:10.37,2013-05-06 21:26:00,
2013-05-06 16:31:00,74.3,51.6,29.99,East,97,8.1,8.1,45,0.00,CLR,,0.00,WeatherDisplay:10.37,2013-05-06 21:31:00,
2013-05-06 16:36:00,74.8,52.0,30.00,SSE,160,6.9,6.9,45,0.00,CLR,,0.00,WeatherDisplay:10.37,2013-05-06 21:36:00,
2013-05-06 16:41:00,74.9,51.5,29.99,ESE,120,8.1,8.1,44,0.00,CLR,,0.00,WeatherDisplay:10.37,2013-05-06 21:41:00,
2013-05-06 16:46:00,74.4,51.1,29.99,ESE,112,6.9,6.9,44,0.00,CLR,,0.00,WeatherDisplay:10.37,2013-05-06 21:46:00,
2013-05-06 16:51:00,74.5,51.8,29.99,ENE,72,6.9,6.9,45,0.00,CLR,,0.00,WeatherDisplay:10.37,2013-05-06 21:51:00,
2013-05-06 16:56:00,74.6,51.2,29.99,East,89,8.1,8.1,44,0.00,CLR,,0.00,WeatherDisplay:10.37,2013-05-06 21:56:00,
2013-05-06 17:01:00,75.0,52.2,29.99,East,85,4.6,4.6,45,0.00,CLR,,0.00,WeatherDisplay:10.37,2013-05-06 22:01:00,
2013-05-06 17:06:00,74.9,50.9,29.99,ENE,60,6.9,6.9,43,0.00,CLR,,0.00,WeatherDisplay:10.37,2013-05-06 22:06:00,
2013-05-06 17:11:00,74.9,52.1,29.99,NE,39,3.5,3.5,45,0.00,CLR,,0.00,WeatherDisplay:10.37,2013-05-06 22:11:00,
2013-05-06 17:16:00,75.0,51.6,29.99,ENE,64,6.9,6.9,44,0.00,CLR,,0.00,WeatherDisplay:10.37,2013-05-06 22:16:00,
2013-05-06 17:21:00,74.5,51.2,29.99,NE,39,3.5,3.5,44,0.00,CLR,,0.00,WeatherDisplay:10.37,2013-05-06 22:21:00,
2013-05-06 17:26:00,74.3,51.6,29.99,ENE,62,4.6,4.6,45,0.00,CLR,,0.00,WeatherDisplay:10.37,2013-05-06 22:26:00,
2013-05-06 17:31:00,74.2,52.1,29.99,ENE,63,4.6,4.6,46,0.00,CLR,,0.00,WeatherDisplay:10.37,2013-05-06 22:31:00,
2013-05-06 17:36:00,74.0,51.9,30.00,East,81,4.6,4.6,46,0.00,CLR,,0.00,WeatherDisplay:10.37,2013-05-06 22:36:00,
2013-05-06 17:41:00,73.9,51.8,30.00,East,82,3.5,3.5,46,0.00,CLR,,0.00,WeatherDisplay:10.37,2013-05-06 22:41:00,
2013-05-06 17:46:00,73.8,51.7,30.00,ENE,72,3.5,4.2,46,0.00,CLR,,0.00,WeatherDisplay:10.37,2013-05-06 22:46:00,
2013-05-06 17:51:00,73.7,52.2,30.00,ENE,77,4.6,4.6,47,0.00,CLR,,0.00,WeatherDisplay:10.37,2013-05-06 22:51:00,
2013-05-06 17:56:00,73.7,52.2,30.00,East,81,3.5,3.5,47,0.00,CLR,,0.00,WeatherDisplay:10.37,2013-05-06 22:56:00,
2013-05-06 18:01:00,73.6,52.1,30.00,ENE,72,3.5,3.5,47,0.00,CLR,,0.00,WeatherDisplay:10.37,2013-05-06 23:01:00,
2013-05-06 18:06:00,73.5,52.6,30.00,ENE,57,3.5,3.5,48,0.00,CLR,,0.00,WeatherDisplay:10.37,2013-05-06 23:06:00,
2013-05-06 18:11:00,73.4,51.9,30.00,East,79,4.6,4.6,47,0.00,CLR,,0.00,WeatherDisplay:10.37,2013-05-06 23:11:00,
2013-05-06 18:16:00,73.3,53.0,30.00,ENE,63,3.5,3.7,49,0.00,CLR,,0.00,WeatherDisplay:10.37,2013-05-06 23:16:00,
2013-05-06 18:21:00,73.1,52.8,30.00,ENE,76,3.5,3.5,49,0.00,CLR,,0.00,WeatherDisplay:10.37,2013-05-06 23:21:00,
2013-05-06 18:26:00,73.0,52.7,30.00,East,89,3.5,3.5,49,0.00,CLR,,0.00,WeatherDisplay:10.37,2013-05-06 23:26:00,
2013-05-06 18:31:00,72.9,53.2,29.99,East,88,3.5,3.5,50,0.00,CLR,,0.00,WeatherDisplay:10.37,2013-05-06 23:31:00,
2013-05-06 18:36:00,72.9,53.2,29.98,ENE,75,5.8,5.8,50,0.00,CLR,,0.00,WeatherDisplay:10.37,2013-05-06 23:36:00,
2013-05-06 18:41:00,72.9,53.2,29.99,East,82,3.5,3.6,50,0.00,CLR,,0.00,WeatherDisplay:10.37,2013-05-06 23:41:00,
2013-05-06 18:46:00,72.9,53.7,29.99,ENE,74,4.0,4.0,51,0.00,CLR,,0.00,WeatherDisplay:10.37,2013-05-06 23:46:00,
2013-05-06 18:51:00,72.8,53.1,29.98,ENE,72,3.5,3.5,50,0.00,CLR,,0.00,WeatherDisplay:10.37,2013-05-06 23:51:00,
2013-05-06 18:56:00,72.8,53.1,29.98,ENE,72,4.6,4.6,50,0.00,CLR,,0.00,WeatherDisplay:10.37,2013-05-06 23:56:00,
2013-05-06 19:01:00,72.7,53.0,29.98,East,85,4.6,4.6,50,0.00,CLR,,0.00,WeatherDisplay:10.37,2013-05-07 00:01:00,
2013-05-06 19:06:00,72.9,54.2,29.98,ENE,74,1.1,0.0,52,0.00,CLR,,0.00,WeatherDisplay:10.37,2013-05-07 00:06:00,
2013-05-06 19:11:00,73.0,53.3,29.98,East,81,3.5,3.5,50,0.00,CLR,,0.00,WeatherDisplay:10.37,2013-05-07 00:11:00,
2013-05-06 19:16:00,73.0,53.3,29.99,East,79,2.3,2.3,50,0.00,CLR,,0.00,WeatherDisplay:10.37,2013-05-07 00:16:00,
2013-05-06 19:21:00,73.1,53.4,29.99,ESE,103,3.5,3.5,50,0.00,CLR,,0.00,WeatherDisplay:10.37,2013-05-07 00:21:00,
2013-05-06 19:26:00,73.1,53.4,29.99,ESE,103,2.3,2.3,50,0.00,CLR,,0.00,WeatherDisplay:10.37,2013-05-07 00:26:00,
2013-05-06 19:31:00,73.2,54.0,30.00,ESE,112,0.0,0.0,51,0.00,CLR,,0.00,WeatherDisplay:10.37,2013-05-07 00:31:00,
2013-05-06 19:36:00,73.2,54.0,30.00,SE,125,0.0,0.0,51,0.00,CLR,,0.00,WeatherDisplay:10.37,2013-05-07 00:36:00,
2013-05-06 19:41:00,72.7,53.0,30.00,SE,126,0.0,0.0,50,0.00,CLR,,0.00,WeatherDisplay:10.37,2013-05-07 00:41:00,
2013-05-06 19:46:00,72.2,53.1,29.99,East,85,0.0,0.0,51,0.00,CLR,,0.00,WeatherDisplay:10.37,2013-05-07 00:46:00,
2013-05-06 19:51:00,71.7,53.1,29.99,ENE,76,3.5,3.5,52,0.00,CLR,,0.00,WeatherDisplay:10.37,2013-05-07 00:51:00,
2013-05-06 19:56:00,71.2,53.2,29.99,ENE,63,3.5,3.5,53,0.00,CLR,,0.00,WeatherDisplay:10.37,2013-05-07 00:56:00,
2013-05-06 20:01:00,70.9,52.9,29.99,ENE,75,2.3,2.3,53,0.00,CLR,,0.00,WeatherDisplay:10.37,2013-05-07 01:01:00,
2013-05-06 20:06:00,70.6,52.6,29.99,ENE,65,2.3,2.3,53,0.00,CLR,,0.00,WeatherDisplay:10.37,2013-05-07 01:06:00,
2013-05-06 20:11:00,70.3,52.9,29.99,ENE,75,2.3,2.3,54,0.00,CLR,,0.00,WeatherDisplay:10.37,2013-05-07 01:11:00,
2013-05-06 20:16:00,70.0,53.1,29.99,East,86,1.1,1.1,55,0.00,CLR,,0.00,WeatherDisplay:10.37,2013-05-07 01:16:00,
2013-05-06 20:21:00,69.6,53.2,29.99,East,88,0.0,0.0,56,0.00,CLR,,0.00,WeatherDisplay:10.37,2013-05-07 01:21:00,
2013-05-06 20:26:00,69.1,53.2,29.99,East,86,0.0,0.0,57,0.00,CLR,,0.00,WeatherDisplay:10.37,2013-05-07 01:26:00,
2013-05-06 20:31:00,68.9,53.0,30.00,East,86,0.0,0.0,57,0.00,CLR,,0.00,WeatherDisplay:10.37,2013-05-07 01:31:00,
2013-05-06 20:36:00,68.7,53.3,30.00,East,86,0.0,0.0,58,0.00,CLR,,0.00,WeatherDisplay:10.37,2013-05-07 01:36:00,
2013-05-06 20:41:00,68.6,53.2,30.00,East,82,0.0,0.0,58,0.00,CLR,,0.00,WeatherDisplay:10.37,2013-05-07 01:41:00,
2013-05-06 20:46:00,68.6,53.2,30.00,ENE,77,0.0,0.0,58,0.00,CLR,,0.00,WeatherDisplay:10.37,2013-05-07 01:46:00,
2013-05-06 20:51:00,68.4,53.0,30.00,ENE,72,2.3,2.3,58,0.00,CLR,,0.00,WeatherDisplay:10.37,2013-05-07 01:51:00,
2013-05-06 20:56:00,68.4,53.0,30.00,NE,52,3.5,3.5,58,0.00,CLR,,0.00,WeatherDisplay:10.37,2013-05-07 01:56:00,
2013-05-06 21:02:00,68.3,52.9,30.00,ENE,71,2.3,2.3,58,0.00,CLR,,0.00,WeatherDisplay:10.37,2013-05-07 02:02:00,
2013-05-06 21:07:00,68.1,52.8,30.01,ESE,103,0.0,0.0,58,0.00,CLR,,0.00,WeatherDisplay:10.37,2013-05-07 02:07:00,
2013-05-06 21:12:00,67.5,53.1,30.01,ESE,109,0.0,0.0,60,0.00,CLR,,0.00,WeatherDisplay:10.37,2013-05-07 02:12:00,
2013-05-06 21:17:00,66.9,53.0,30.01,East,84,0.0,0.0,61,0.00,CLR,,0.00,WeatherDisplay:10.37,2013-05-07 02:17:00,
2013-05-06 21:22:00,66.6,53.2,30.01,East,87,0.0,0.0,62,0.00,CLR,,0.00,WeatherDisplay:10.37,2013-05-07 02:22:00,
2013-05-06 21:27:00,66.4,53.0,30.01,East,90,0.0,0.0,62,0.00,CLR,,0.00,WeatherDisplay:10.37,2013-05-07 02:27:00,
2013-05-06 21:32:00,66.3,53.3,30.01,East,98,0.0,0.0,63,0.00,CLR,,0.00,WeatherDisplay:10.37,2013-05-07 02:32:00,
2013-05-06 21:37:00,66.1,53.1,30.02,East,101,0.0,0.0,63,0.00,CLR,,0.00,WeatherDisplay:10.37,2013-05-07 02:37:00,
2013-05-06 21:42:00,65.7,53.2,30.02,East,100,0.0,0.0,64,0.00,CLR,,0.00,WeatherDisplay:10.37,2013-05-07 02:42:00,
2013-05-06 21:47:00,65.6,53.1,30.02,East,95,0.0,0.0,64,0.00,CLR,,0.00,WeatherDisplay:10.37,2013-05-07 02:47:00,
2013-05-06 21:52:00,65.5,53.0,30.02,East,90,0.0,0.0,64,0.00,CLR,,0.00,WeatherDisplay:10.37,2013-05-07 02:52:00,
2013-05-06 21:57:00,65.2,53.1,30.01,East,82,0.0,0.0,65,0.00,CLR,,0.00,WeatherDisplay:10.37,2013-05-07 02:57:00,
2013-05-06 22:02:00,65.0,52.9,30.01,East,79,0.0,0.0,65,0.00,CLR,,0.00,WeatherDisplay:10.37,2013-05-07 03:02:00,
2013-05-06 22:07:00,64.9,53.3,30.01,East,89,0.0,1.5,66,0.00,CLR,,0.00,WeatherDisplay:10.37,2013-05-07 03:07:00,
2013-05-06 22:12:00,64.6,53.0,30.01,East,83,2.3,2.3,66,0.00,CLR,,0.00,WeatherDisplay:10.37,2013-05-07 03:12:00,
2013-05-06 22:17:00,64.4,53.2,30.02,ENE,77,2.3,2.3,67,0.00,CLR,,0.00,WeatherDisplay:10.37,2013-05-07 03:17:00,
2013-05-06 22:22:00,64.5,53.3,30.02,ENE,72,3.5,3.5,67,0.00,CLR,,0.00,WeatherDisplay:10.37,2013-05-07 03:22:00,
2013-05-06 22:27:00,64.7,53.1,30.02,NE,43,3.5,3.5,66,0.00,CLR,,0.00,WeatherDisplay:10.37,2013-05-07 03:27:00,
2013-05-06 22:32:00,64.7,53.5,30.02,NNE,26,4.6,4.6,67,0.00,CLR,,0.00,WeatherDisplay:10.37,2013-05-07 03:32:00,
2013-05-06 22:37:00,64.8,53.6,30.03,NE,51,4.6,4.6,67,0.00,CLR,,0.00,WeatherDisplay:10.37,2013-05-07 03:37:00,
2013-05-06 22:42:00,64.6,53.8,30.02,ENE,74,2.3,2.3,68,0.00,CLR,,0.00,WeatherDisplay:10.37,2013-05-07 03:42:00,
2013-05-06 22:47:00,63.9,53.5,30.02,ENE,74,1.1,1.1,69,0.00,CLR,,0.00,WeatherDisplay:10.37,2013-05-07 03:47:00,
2013-05-06 22:52:00,63.4,53.4,30.02,East,99,0.0,0.0,70,0.00,CLR,,0.00,WeatherDisplay:10.37,2013-05-07 03:52:00,
2013-05-06 22:57:00,61.8,52.7,30.02,SE,139,0.0,0.0,72,0.00,CLR,,0.00,WeatherDisplay:10.37,2013-05-07 03:57:00,
2013-05-06 23:01:00,61.6,53.6,30.02,East,83,2.3,2.3,75,0.00,CLR,,0.00,WeatherDisplay:10.37,2013-05-07 04:01:00,
2013-05-06 23:06:00,62.1,54.1,30.03,ENE,72,0.0,0.0,75,0.00,CLR,,0.00,WeatherDisplay:10.37,2013-05-07 04:06:00,
2013-05-06 23:11:00,62.3,53.9,30.03,ENE,72,2.3,2.3,74,0.00,CLR,,0.00,WeatherDisplay:10.37,2013-05-07 04:11:00,
2013-05-06 23:16:00,62.2,53.4,30.03,East,89,0.0,0.0,73,0.00,CLR,,0.00,WeatherDisplay:10.37,2013-05-07 04:16:00,
2013-05-06 23:21:00,62.3,53.5,30.03,ENE,70,0.0,0.1,73,0.00,CLR,,0.00,WeatherDisplay:10.37,2013-05-07 04:21:00,
2013-05-06 23:26:00,62.7,53.5,30.03,ENE,57,2.3,2.3,72,0.00,CLR,,0.00,WeatherDisplay:10.37,2013-05-07 04:26:00,
2013-05-06 23:31:00,62.8,53.6,30.02,ENE,76,2.3,2.3,72,0.00,CLR,,0.00,WeatherDisplay:10.37,2013-05-07 04:31:00,
2013-05-06 23:36:00,62.6,53.8,30.02,East,81,0.0,0.0,73,0.00,CLR,,0.00,WeatherDisplay:10.37,2013-05-07 04:36:00,
2013-05-06 23:41:00,62.3,53.5,30.02,East,79,0.0,0.0,73,0.00,CLR,,0.00,WeatherDisplay:10.37,2013-05-07 04:41:00,
2013-05-06 23:46:00,62.2,53.8,30.02,NE,48,2.0,2.0,74,0.00,CLR,,0.00,WeatherDisplay:10.37,2013-05-07 04:46:00,
2013-05-06 23:51:00,62.3,53.5,30.02,NE,34,3.5,3.5,73,0.00,CLR,,0.00,WeatherDisplay:10.37,2013-05-07 04:51:00,
2013-05-06 23:56:00,62.3,53.5,30.02,NE,40,2.3,2.3,73,0.00,CLR,,0.00,WeatherDisplay:10.37,2013-05-07 04:56:00,